LH1635 EFHK-EPWR

Flight info

Callsign LH1635
Flight time 1h 39m
Altitude 38000
Route KOIVU Y123 LARTI DCT LUTAL DCT BERIL/N0447F370 DCT BOKSU/N0450F380 M857 SUWGI N871 KUKOP N869 UVIVI
Aircraft A320/M-SDE3FGHIRWY/LB1

Departure

Time 2026-04-25 15:56
Airport Helsinki Vantaa Airport (EFHK)

Arrival

Time 2026-04-25 17:35
Airport Copernicus Wrocław Airport (EPWR)
Time Latitude Longitude Altitude Speed Heading
2026-04-25 15:43 60.31758 24.96435 194 ft 0 kts 137°
2026-04-25 15:44 60.31761 24.96429 194 ft 2 kts 137°
2026-04-25 15:44 60.31774 24.96406 194 ft 3 kts 137°
2026-04-25 15:44 60.31788 24.96379 194 ft 3 kts 137°
2026-04-25 15:45 60.31804 24.96351 194 ft 3 kts 137°
2026-04-25 15:45 60.31818 24.96325 194 ft 0 kts 137°
2026-04-25 15:48 60.31817 24.96325 194 ft 0 kts 137°
2026-04-25 15:48 60.31817 24.96326 194 ft 0 kts 137°
2026-04-25 15:49 60.31814 24.96335 194 ft 3 kts 119°
2026-04-25 15:49 60.31846 24.96396 194 ft 11 kts 20°
2026-04-25 15:49 60.31935 24.96494 194 ft 19 kts 49°
2026-04-25 15:49 60.32029 24.96719 194 ft 10 kts 50°
2026-04-25 15:50 60.32044 24.96744 194 ft 6 kts 30°
2026-04-25 15:50 60.32104 24.96708 194 ft 13 kts 330°
2026-04-25 15:50 60.32209 24.96593 194 ft 21 kts 332°
2026-04-25 15:50 60.32363 24.96425 194 ft 29 kts 331°
2026-04-25 15:51 60.32561 24.96226 194 ft 33 kts 333°
2026-04-25 15:51 60.32696 24.96088 194 ft 33 kts 333°
2026-04-25 15:51 60.32966 24.95819 194 ft 33 kts 334°
2026-04-25 15:51 60.33089 24.95596 194 ft 18 kts 272°
2026-04-25 15:52 60.33097 24.95286 194 ft 26 kts 273°
2026-04-25 15:52 60.33108 24.94873 194 ft 33 kts 273°
2026-04-25 15:52 60.33116 24.94590 194 ft 0 kts 273°
2026-04-25 15:54 60.33117 24.94537 194 ft 8 kts 273°
2026-04-25 15:55 60.33107 24.94380 194 ft 15 kts 237°
2026-04-25 15:55 60.33050 24.94248 194 ft 0 kts 227°
2026-04-25 15:55 60.32991 24.94119 194 ft 44 kts 227°
2026-04-25 15:55 60.32587 24.93234 194 ft 124 kts 227°
2026-04-25 15:56 60.31940 24.91814 597 ft 142 kts 227°
2026-04-25 15:56 60.31224 24.90329 1414 ft 150 kts 225°
2026-04-25 15:56 60.30563 24.88775 2121 ft 152 kts 245°
2026-04-25 15:56 60.30342 24.86613 2700 ft 158 kts 266°
2026-04-25 15:57 60.30331 24.84384 3447 ft 167 kts 270°
2026-04-25 15:57 60.30355 24.81802 3787 ft 201 kts 271°
2026-04-25 15:57 60.30267 24.78801 4274 ft 227 kts 260°
2026-04-25 15:57 60.29768 24.75601 5042 ft 240 kts 250°
2026-04-25 15:58 60.29133 24.72407 5946 ft 248 kts 249°
2026-04-25 15:58 60.28478 24.69174 6941 ft 252 kts 249°
2026-04-25 15:58 60.27805 24.65863 7941 ft 256 kts 249°
2026-04-25 15:58 60.27354 24.63643 8588 ft 259 kts 249°
2026-04-25 15:59 60.26430 24.59112 9854 ft 264 kts 249°
2026-04-25 15:59 60.25965 24.56835 10462 ft 266 kts 249°
2026-04-25 15:59 60.25251 24.53346 11360 ft 270 kts 249°
2026-04-25 15:59 60.23845 24.49150 12558 ft 277 kts 223°
2026-04-25 16:00 60.22131 24.47252 13025 ft 301 kts 205°
2026-04-25 16:00 60.21442 24.46744 13162 ft 308 kts 203°
2026-04-25 16:00 60.18742 24.44886 13850 ft 325 kts 202°
2026-04-25 16:00 60.16434 24.43330 14556 ft 334 kts 202°
2026-04-25 16:01 60.14206 24.41833 15264 ft 340 kts 201°
2026-04-25 16:01 60.11865 24.40892 16060 ft 347 kts 186°
2026-04-25 16:01 60.09461 24.41550 16857 ft 356 kts 166°
2026-04-25 16:01 60.07186 24.43624 17526 ft 364 kts 156°
2026-04-25 16:02 60.04911 24.45987 18091 ft 371 kts 156°
2026-04-25 16:02 60.02608 24.48400 18686 ft 376 kts 156°
2026-04-25 16:02 60.00272 24.50845 19294 ft 381 kts 156°
2026-04-25 16:02 59.97782 24.53442 19935 ft 385 kts 156°
2026-04-25 16:03 59.95395 24.55923 20537 ft 388 kts 156°
2026-04-25 16:03 59.92977 24.58429 21124 ft 392 kts 156°
2026-04-25 16:03 59.90552 24.60938 21689 ft 395 kts 156°
2026-04-25 16:03 59.88093 24.63458 22233 ft 398 kts 158°
2026-04-25 16:04 59.85490 24.65320 22636 ft 399 kts 171°
2026-04-25 16:04 59.82729 24.65837 23072 ft 398 kts 185°
2026-04-25 16:04 59.79967 24.65018 23580 ft 396 kts 195°
2026-04-25 16:04 59.77215 24.63758 24176 ft 396 kts 197°
2026-04-25 16:05 59.74535 24.62494 24698 ft 397 kts 197°
2026-04-25 16:05 59.71828 24.61215 25182 ft 399 kts 197°
2026-04-25 16:05 59.66398 24.58656 26062 ft 403 kts 197°
2026-04-25 16:06 59.63659 24.57328 26477 ft 406 kts 197°
2026-04-25 16:06 59.60890 24.56131 26893 ft 409 kts 195°
2026-04-25 16:06 59.58090 24.55021 27278 ft 411 kts 194°
2026-04-25 16:06 59.55241 24.53911 27649 ft 414 kts 194°
2026-04-25 16:07 59.52209 24.52722 28029 ft 417 kts 194°
2026-04-25 16:07 59.51288 24.52360 28142 ft 417 kts 194°
2026-04-25 16:07 59.46484 24.50470 28714 ft 421 kts 194°
2026-04-25 16:07 59.43607 24.49340 29046 ft 424 kts 194°
2026-04-25 16:08 59.40707 24.48204 29373 ft 426 kts 194°
2026-04-25 16:08 59.37794 24.47065 29696 ft 428 kts 194°
2026-04-25 16:08 59.34861 24.45920 30014 ft 430 kts 194°
2026-04-25 16:08 59.31920 24.44775 30326 ft 432 kts 194°
2026-04-25 16:09 59.29803 24.43951 30547 ft 434 kts 194°
2026-04-25 16:09 59.25833 24.42409 30952 ft 436 kts 194°
2026-04-25 16:09 59.23854 24.41642 31153 ft 438 kts 194°
2026-04-25 16:09 59.20859 24.40483 31481 ft 439 kts 194°
2026-04-25 16:10 59.17861 24.39325 31825 ft 439 kts 194°
2026-04-25 16:10 59.14862 24.38168 32180 ft 439 kts 194°
2026-04-25 16:10 59.11851 24.37007 32539 ft 439 kts 194°
2026-04-25 16:10 59.08860 24.35857 32896 ft 439 kts 194°
2026-04-25 16:11 59.05788 24.34677 33260 ft 438 kts 194°
2026-04-25 16:11 59.02790 24.33527 33611 ft 438 kts 194°
2026-04-25 16:11 58.99796 24.32381 33956 ft 437 kts 194°
2026-04-25 16:11 58.96814 24.31242 34294 ft 436 kts 194°
2026-04-25 16:12 58.93829 24.30103 34624 ft 436 kts 194°
2026-04-25 16:12 58.90856 24.28972 34947 ft 435 kts 194°
2026-04-25 16:12 58.87888 24.27844 35262 ft 434 kts 194°
2026-04-25 16:12 58.85883 24.27083 35471 ft 434 kts 194°
2026-04-25 16:13 58.81963 24.25597 35870 ft 433 kts 194°
2026-04-25 16:13 58.78969 24.24465 36165 ft 432 kts 194°
2026-04-25 16:13 58.76017 24.23351 36444 ft 431 kts 194°
2026-04-25 16:13 58.73068 24.22240 36712 ft 431 kts 194°
2026-04-25 16:14 58.70127 24.21134 36994 ft 430 kts 194°
2026-04-25 16:14 58.67184 24.20029 37212 ft 430 kts 194°
2026-04-25 16:14 58.64242 24.18926 37268 ft 430 kts 194°
2026-04-25 16:15 58.58344 24.16722 37287 ft 427 kts 194°
2026-04-25 16:15 58.52517 24.14549 37288 ft 427 kts 194°
2026-04-25 16:16 58.46603 24.12354 37289 ft 427 kts 194°
2026-04-25 16:16 58.40764 24.10194 37289 ft 427 kts 194°
2026-04-25 16:17 58.34810 24.07999 37289 ft 427 kts 194°
2026-04-25 16:17 58.28969 24.05853 37289 ft 427 kts 194°
2026-04-25 16:18 58.23134 24.03716 37289 ft 427 kts 194°
2026-04-25 16:18 58.17291 24.01583 37289 ft 427 kts 194°
2026-04-25 16:19 58.11295 23.99402 37289 ft 427 kts 194°
2026-04-25 16:19 58.05449 23.97283 37289 ft 427 kts 194°
2026-04-25 16:20 57.96692 23.94121 37289 ft 427 kts 194°
2026-04-25 16:21 57.88796 23.91333 37288 ft 428 kts 192°
2026-04-25 16:21 57.82900 23.89579 37289 ft 428 kts 192°
2026-04-25 16:22 57.77021 23.87792 37289 ft 428 kts 192°
2026-04-25 16:22 57.71115 23.85946 37289 ft 428 kts 193°
2026-04-25 16:23 57.65251 23.84081 37289 ft 427 kts 193°
2026-04-25 16:23 57.59185 23.82134 37289 ft 427 kts 193°
2026-04-25 16:24 57.53316 23.80241 37289 ft 427 kts 193°
2026-04-25 16:24 57.47455 23.78347 37289 ft 427 kts 193°
2026-04-25 16:25 57.41588 23.76452 37289 ft 427 kts 193°
2026-04-25 16:25 57.35569 23.74510 37289 ft 427 kts 193°
2026-04-25 16:26 57.29640 23.72601 37289 ft 427 kts 193°
2026-04-25 16:26 57.23813 23.70730 37289 ft 427 kts 193°
2026-04-25 16:27 57.17953 23.68853 37289 ft 427 kts 193°
2026-04-25 16:27 57.11923 23.66927 37289 ft 427 kts 193°
2026-04-25 16:28 57.06067 23.65063 37289 ft 427 kts 193°
2026-04-25 16:28 57.00206 23.63203 37289 ft 427 kts 193°
2026-04-25 16:29 56.94350 23.61350 37289 ft 427 kts 193°
2026-04-25 16:29 56.89312 23.59761 37289 ft 427 kts 193°
2026-04-25 16:30 56.83455 23.57918 37289 ft 427 kts 193°
2026-04-25 16:30 56.77595 23.56081 37289 ft 427 kts 193°
2026-04-25 16:31 56.71739 23.54251 37289 ft 427 kts 193°
2026-04-25 16:31 56.65693 23.52367 37289 ft 427 kts 193°
2026-04-25 16:32 56.59806 23.50539 37289 ft 427 kts 193°
2026-04-25 16:32 56.53935 23.48722 37289 ft 427 kts 193°
2026-04-25 16:33 56.48035 23.46901 37289 ft 427 kts 193°
2026-04-25 16:33 56.42164 23.45095 37289 ft 427 kts 193°
2026-04-25 16:34 56.36187 23.43268 37289 ft 427 kts 193°
2026-04-25 16:34 56.30302 23.41734 37289 ft 428 kts 189°
2026-04-25 16:35 56.24361 23.40650 37289 ft 429 kts 189°
2026-04-25 16:35 56.19176 23.39694 37281 ft 428 kts 187°
2026-04-25 16:35 56.15760 23.41030 37308 ft 439 kts 162°
2026-04-25 16:36 56.12807 23.42627 37287 ft 437 kts 174°
2026-04-25 16:36 56.06935 23.41523 37293 ft 423 kts 202°
2026-04-25 16:37 56.02360 23.38282 37290 ft 421 kts 206°
2026-04-25 16:37 55.96709 23.35378 37290 ft 428 kts 190°
2026-04-25 16:38 55.90769 23.34379 37289 ft 429 kts 188°
2026-04-25 16:38 55.84796 23.33329 37289 ft 428 kts 189°
2026-04-25 16:39 55.78857 23.32234 37289 ft 428 kts 189°
2026-04-25 16:39 55.72927 23.31151 37289 ft 428 kts 189°
2026-04-25 16:40 55.67076 23.30086 37289 ft 428 kts 189°
2026-04-25 16:40 55.60930 23.28971 37289 ft 428 kts 189°
2026-04-25 16:41 55.55001 23.27898 37289 ft 428 kts 189°
2026-04-25 16:41 55.46091 23.26292 37289 ft 428 kts 189°
2026-04-25 16:42 55.40170 23.25229 37289 ft 428 kts 189°
2026-04-25 16:42 55.34224 23.24165 37289 ft 428 kts 189°
2026-04-25 16:43 55.28162 23.23083 37289 ft 428 kts 189°
2026-04-25 16:43 55.22233 23.22028 37289 ft 428 kts 189°
2026-04-25 16:44 55.16296 23.20974 37289 ft 428 kts 189°
2026-04-25 16:44 55.10365 23.19925 37289 ft 428 kts 189°
2026-04-25 16:45 55.04445 23.18882 37289 ft 428 kts 189°
2026-04-25 16:45 54.98512 23.17838 37289 ft 428 kts 189°
2026-04-25 16:46 54.92581 23.16799 37289 ft 428 kts 189°
2026-04-25 16:46 54.88612 23.16105 37289 ft 428 kts 189°
2026-04-25 16:47 54.80669 23.14720 37289 ft 428 kts 189°
2026-04-25 16:47 54.74678 23.13679 37289 ft 428 kts 189°
2026-04-25 16:48 54.68603 23.12627 37289 ft 428 kts 189°
2026-04-25 16:48 54.62683 23.11604 37289 ft 428 kts 189°
2026-04-25 16:49 54.56754 23.10583 37289 ft 428 kts 189°
2026-04-25 16:49 54.50819 23.09564 37289 ft 428 kts 189°
2026-04-25 16:50 54.44852 23.08543 37289 ft 428 kts 189°
2026-04-25 16:50 54.37892 23.07355 37289 ft 428 kts 189°
2026-04-25 16:51 54.26241 23.03871 37293 ft 421 kts 204°
2026-04-25 16:51 54.17100 22.97644 37288 ft 421 kts 205°
2026-04-25 16:52 54.04478 22.87633 37288 ft 416 kts 217°
2026-04-25 16:52 53.95172 22.75529 37288 ft 415 kts 220°
2026-04-25 16:53 53.81159 22.57311 37289 ft 415 kts 220°
2026-04-25 16:54 53.71965 22.45460 37289 ft 415 kts 220°
2026-04-25 16:54 53.62380 22.33179 37289 ft 415 kts 220°
2026-04-25 16:55 53.53033 22.21273 37289 ft 415 kts 220°
2026-04-25 16:55 53.43806 22.09588 37289 ft 415 kts 219°
2026-04-25 16:56 53.34541 21.97918 37289 ft 415 kts 219°
2026-04-25 16:56 53.25279 21.86319 37289 ft 415 kts 219°
2026-04-25 16:57 53.17578 21.76723 37289 ft 415 kts 219°
2026-04-25 16:57 53.08234 21.65345 37289 ft 415 kts 219°
2026-04-25 16:58 52.98754 21.53777 37289 ft 415 kts 219°
2026-04-25 16:58 52.89132 21.42020 37289 ft 415 kts 219°
2026-04-25 16:59 52.79505 21.30297 37289 ft 415 kts 219°
2026-04-25 16:59 52.70185 21.19001 37289 ft 415 kts 219°
2026-04-25 17:00 52.60483 21.07304 37289 ft 415 kts 219°
2026-04-25 17:00 52.51101 20.96152 37289 ft 415 kts 218°
2026-04-25 17:01 52.42109 20.85524 37289 ft 415 kts 218°
2026-04-25 17:01 52.37387 20.79937 37289 ft 415 kts 218°
2026-04-25 17:02 52.33455 20.75290 37289 ft 415 kts 218°
2026-04-25 17:02 52.28779 20.69746 37288 ft 415 kts 220°
2026-04-25 17:03 52.24534 20.63352 37288 ft 411 kts 231°
2026-04-25 17:03 52.21017 20.55855 37289 ft 410 kts 236°
2026-04-25 17:04 52.17650 20.48385 37289 ft 410 kts 236°
2026-04-25 17:04 52.14556 20.40498 37288 ft 408 kts 244°
2026-04-25 17:05 52.12461 20.32109 37289 ft 407 kts 251°
2026-04-25 17:05 52.09598 20.18888 37289 ft 407 kts 251°
2026-04-25 17:06 52.07710 20.10201 37289 ft 407 kts 251°
2026-04-25 17:06 52.05816 20.01526 37289 ft 407 kts 251°
2026-04-25 17:07 52.03917 19.92868 37289 ft 407 kts 251°
2026-04-25 17:07 52.02028 19.84200 37289 ft 407 kts 251°
2026-04-25 17:08 52.00150 19.75543 37289 ft 406 kts 252°
2026-04-25 17:08 51.98254 19.66814 37106 ft 409 kts 251°
2026-04-25 17:09 51.97306 19.62465 36855 ft 406 kts 251°
2026-04-25 17:09 51.96355 19.58108 36601 ft 404 kts 251°
2026-04-25 17:09 51.95398 19.53769 36348 ft 404 kts 251°
2026-04-25 17:09 51.94452 19.49477 36097 ft 404 kts 251°
2026-04-25 17:10 51.93507 19.45187 35847 ft 404 kts 251°
2026-04-25 17:10 51.92547 19.40837 35593 ft 405 kts 251°
2026-04-25 17:10 51.91598 19.36538 35343 ft 406 kts 251°
2026-04-25 17:10 51.90645 19.32224 35092 ft 406 kts 251°
2026-04-25 17:11 51.89691 19.27917 34841 ft 407 kts 251°
2026-04-25 17:11 51.88737 19.23614 34592 ft 407 kts 251°
2026-04-25 17:11 51.87776 19.19290 34341 ft 408 kts 251°
2026-04-25 17:11 51.86817 19.14979 34091 ft 408 kts 251°
2026-04-25 17:12 51.85850 19.10650 33840 ft 409 kts 251°
2026-04-25 17:12 51.84894 19.06325 33590 ft 409 kts 251°
2026-04-25 17:12 51.83937 19.01973 33339 ft 410 kts 251°
2026-04-25 17:12 51.82982 18.97630 33088 ft 410 kts 251°
2026-04-25 17:13 51.82024 18.93270 32837 ft 411 kts 251°
2026-04-25 17:13 51.81713 18.91856 32756 ft 411 kts 251°
2026-04-25 17:13 51.80105 18.84571 32070 ft 410 kts 251°
2026-04-25 17:13 51.79147 18.80256 31448 ft 407 kts 251°
2026-04-25 17:14 51.78143 18.75716 30776 ft 404 kts 251°
2026-04-25 17:14 51.77208 18.71473 30158 ft 400 kts 251°
2026-04-25 17:14 51.76280 18.67256 29522 ft 397 kts 251°
2026-04-25 17:14 51.75654 18.64410 29101 ft 395 kts 251°
2026-04-25 17:15 51.74740 18.60255 28484 ft 391 kts 251°
2026-04-25 17:15 51.73834 18.56134 27884 ft 387 kts 251°
2026-04-25 17:15 51.72939 18.52070 27287 ft 382 kts 251°
2026-04-25 17:15 51.72049 18.48030 26691 ft 378 kts 251°
2026-04-25 17:16 51.71171 18.44055 26106 ft 374 kts 251°
2026-04-25 17:16 51.70289 18.40073 25518 ft 369 kts 251°
2026-04-25 17:16 51.69433 18.36211 24948 ft 365 kts 251°
2026-04-25 17:16 51.68582 18.32388 24382 ft 360 kts 251°
2026-04-25 17:17 51.67739 18.28608 23802 ft 356 kts 251°
2026-04-25 17:17 51.66895 18.24832 23222 ft 352 kts 251°
2026-04-25 17:17 51.66043 18.21035 22632 ft 348 kts 251°
2026-04-25 17:17 51.65166 18.17135 22035 ft 344 kts 251°
2026-04-25 17:18 51.64345 18.13492 21483 ft 340 kts 251°
2026-04-25 17:18 51.63538 18.09926 20944 ft 337 kts 251°
2026-04-25 17:18 51.62734 18.06379 20413 ft 334 kts 251°
2026-04-25 17:18 51.61950 18.02926 20052 ft 334 kts 251°
2026-04-25 17:19 51.61162 17.99466 19517 ft 336 kts 251°
2026-04-25 17:19 51.60330 17.95827 18896 ft 335 kts 251°
2026-04-25 17:19 51.59513 17.92367 18301 ft 334 kts 248°
2026-04-25 17:19 51.58367 17.89105 17702 ft 336 kts 236°
2026-04-25 17:20 51.56777 17.86399 17395 ft 331 kts 223°
2026-04-25 17:20 51.54951 17.84112 17316 ft 330 kts 221°
2026-04-25 17:20 51.53121 17.81855 16885 ft 332 kts 220°
2026-04-25 17:20 51.51255 17.79563 15987 ft 342 kts 220°
2026-04-25 17:21 51.49259 17.77126 15330 ft 342 kts 220°
2026-04-25 17:21 51.47362 17.74815 14774 ft 339 kts 220°
2026-04-25 17:21 51.45506 17.72555 14239 ft 337 kts 220°
2026-04-25 17:21 51.43647 17.70290 13706 ft 334 kts 220°
2026-04-25 17:22 51.41734 17.67960 13164 ft 331 kts 220°
2026-04-25 17:22 51.41134 17.67231 12995 ft 330 kts 220°
2026-04-25 17:22 51.38712 17.64283 12310 ft 325 kts 220°
2026-04-25 17:22 51.36965 17.62158 11817 ft 321 kts 220°
2026-04-25 17:23 51.35197 17.60009 11317 ft 317 kts 220°
2026-04-25 17:23 51.33381 17.57820 10805 ft 312 kts 219°
2026-04-25 17:23 51.31574 17.55907 10339 ft 308 kts 214°
2026-04-25 17:23 51.29686 17.54348 10178 ft 295 kts 208°
2026-04-25 17:24 51.27801 17.53043 9916 ft 284 kts 207°
2026-04-25 17:24 51.26040 17.51844 9494 ft 281 kts 207°
2026-04-25 17:24 51.24215 17.50608 9108 ft 275 kts 207°
2026-04-25 17:24 51.22383 17.49370 8875 ft 271 kts 207°
2026-04-25 17:25 51.20628 17.48201 8611 ft 270 kts 206°
2026-04-25 17:25 51.18898 17.47039 8324 ft 269 kts 207°
2026-04-25 17:25 51.17173 17.45876 8034 ft 268 kts 207°
2026-04-25 17:25 51.15478 17.44736 7753 ft 267 kts 207°
2026-04-25 17:26 51.13766 17.43587 7469 ft 265 kts 207°
2026-04-25 17:26 51.12030 17.42424 7182 ft 264 kts 207°
2026-04-25 17:26 51.10390 17.41331 7073 ft 248 kts 207°
2026-04-25 17:26 51.08834 17.40294 6993 ft 229 kts 207°
2026-04-25 17:27 51.07413 17.39343 6829 ft 216 kts 207°
2026-04-25 17:27 51.06041 17.38420 6490 ft 212 kts 207°
2026-04-25 17:27 51.04709 17.37482 6096 ft 210 kts 211°
2026-04-25 17:27 51.04278 17.37109 5956 ft 209 kts 214°
2026-04-25 17:28 51.02313 17.34704 5254 ft 205 kts 228°
2026-04-25 17:28 51.01374 17.32904 4832 ft 203 kts 237°
2026-04-25 17:28 51.00667 17.30947 4494 ft 197 kts 246°
2026-04-25 17:28 51.00203 17.28973 4340 ft 185 kts 254°
2026-04-25 17:29 50.99951 17.27049 4155 ft 176 kts 262°
2026-04-25 17:29 50.99879 17.25119 3983 ft 174 kts 270°
2026-04-25 17:29 50.99983 17.23201 3805 ft 174 kts 278°
2026-04-25 17:29 51.00153 17.21916 3686 ft 175 kts 283°
2026-04-25 17:30 51.00568 17.19987 3491 ft 174 kts 290°
2026-04-25 17:30 51.01075 17.18211 3393 ft 174 kts 293°
2026-04-25 17:30 51.01597 17.16464 3316 ft 174 kts 294°
2026-04-25 17:30 51.02158 17.14720 3240 ft 174 kts 295°
2026-04-25 17:31 51.02701 17.13004 3165 ft 174 kts 295°
2026-04-25 17:31 51.03235 17.11302 3091 ft 174 kts 295°
2026-04-25 17:31 51.03772 17.09577 3016 ft 174 kts 294°
2026-04-25 17:31 51.04309 17.07846 2840 ft 174 kts 294°
2026-04-25 17:32 51.04671 17.06680 2686 ft 173 kts 294°
2026-04-25 17:32 51.05369 17.04425 2388 ft 172 kts 294°
2026-04-25 17:32 51.05887 17.02752 2187 ft 161 kts 294°
2026-04-25 17:32 51.06356 17.01245 1964 ft 142 kts 294°
2026-04-25 17:33 51.06766 16.99929 1773 ft 127 kts 294°
2026-04-25 17:33 51.07141 16.98718 1607 ft 124 kts 294°
2026-04-25 17:33 51.07550 16.97410 1446 ft 123 kts 295°
2026-04-25 17:33 51.07954 16.96217 1326 ft 123 kts 296°
2026-04-25 17:34 51.08366 16.95020 1225 ft 124 kts 296°
2026-04-25 17:34 51.08736 16.93793 1024 ft 123 kts 292°
2026-04-25 17:34 51.09062 16.92550 719 ft 120 kts 293°
2026-04-25 17:34 51.09408 16.91358 599 ft 120 kts 297°
2026-04-25 17:35 51.09813 16.90099 499 ft 121 kts 296°
2026-04-25 17:35 51.10178 16.88911 419 ft 100 kts 296°
2026-04-25 17:35 51.10370 16.88297 419 ft 43 kts 295°
2026-04-25 17:35 51.10517 16.87808 419 ft 57 kts 295°
2026-04-25 17:36 51.10629 16.87436 419 ft 48 kts 295°
2026-04-25 17:36 51.10744 16.87161 419 ft 20 kts
2026-04-25 17:36 51.10950 16.87323 419 ft 27 kts 24°
2026-04-25 17:36 51.10938 16.87537 419 ft 33 kts 114°
2026-04-25 17:37 51.10828 16.87901 419 ft 39 kts 116°
2026-04-25 17:37 51.10703 16.88316 419 ft 44 kts 115°
2026-04-25 17:37 51.10567 16.88775 419 ft 49 kts 116°
2026-04-25 17:37 51.10407 16.89297 419 ft 54 kts 115°
2026-04-25 17:38 51.10261 16.89783 419 ft 22 kts 115°
2026-04-25 17:38 51.10240 16.89853 419 ft 9 kts 115°
2026-04-25 17:38 51.10209 16.90000 419 ft 10 kts 58°
2026-04-25 17:38 51.10290 16.90065 419 ft 16 kts 26°
2026-04-25 17:39 51.10399 16.90126 419 ft 7 kts 17°
2026-04-25 17:39 51.10466 16.90137 419 ft 12 kts 336°
2026-04-25 17:39 51.10520 16.90126 419 ft 3 kts
2026-04-25 17:39 51.10521 16.90126 419 ft 0 kts